Temperature
17 17 18 18 14 12 14 14 14 15 14 13 13 12 11 11 12 12 10 10 11 11 11 11 12 12 12 12 12 12 13 13 13 13 13 13 13 13 13 13 14 14 14 14 14 14 14 14 14
17 17 18 17 13 13 14 13 14 14 14 13 12 12 10 9 10 10 10 10 11 11 11 11 11 11 12 12 12 12 12 12 12 12 12 12 13 13 13 13 13 13 13 14 14 14 14 14 14
17 17 17 12 12 13 14 14 13 13 14 13 11 10 10 9 9 10 10 10 10 11 11 11 11 11 11 11 12 12 12 12 12 12 12 12 12 12 12 13 13 13 13 13 13 13 13 13 13
17 17 16 12 13 13 13 13 13 13 13 12 11 9 9 9 9 9 10 10 10 11 11 11 11 11 11 11 11 11 11 11 11 11 11 12 12 12 12 12 12 13 13 13 13 13 13 13 13
17 16 12 12 13 13 13 13 13 12 12 11 10 8 8 9 9 9 10 10 10 10 10 10 10 11 11 11 11 11 11 11 11 11 11 11 11 12 12 12 12 12 12 12 12 13 13 13 13
16 13 11 12 13 13 13 13 13 11 11 11 9 8 8 8 9 9 9 10 10 10 10 10 10 10 10 10 10 11 11 11 11 11 11 11 11 11 11 12 12 12 12 12 12 12 12 12 12
15 11 12 12 12 13 13 13 12 11 10 10 10 8 7 8 8 9 9 9 9 10 10 10 10 10 10 10 10 10 10 10 11 11 11 11 11 11 11 11 11 11 11 11 11 12 12 12 12
15 11 12 12 12 13 13 12 12 11 10 10 10 8 7 8 8 8 9 9 9 9 9 9 9 9 10 10 10 10 10 10 10 10 10 10 10 11 11 11 11 11 11 11 11 11 11 11 12
15 10 11 12 12 12 12 11 11 11 10 9 9 9 9 8 8 8 8 8 9 9 9 9 9 9 9 9 9 9 9 9 10 10 10 10 10 10 10 10 10 10 10 11 11 11 11 11 11
13 10 11 12 12 11 11 11 10 10 8 7 8 8 8 8 8 8 8 8 8 8 8 8 8 8 8 9 9 9 9 9 9 9 9 9 9 9 9 10 10 10 10 10 10 10 10 10 10
11 10 11 11 12 12 11 10 10 9 8 8 8 8 8 7 7 8 8 8 8 8 8 8 8 8 8 8 8 8 8 8 9 9 9 9 9 9 9 9 9 9 9 9 10 10 10 10 10
10 10 11 11 12 11 11 10 9 9 9 10 9 9 8 7 7 7 7 7 7 7 7 7 7 7 7 8 8 8 8 8 8 8 8 8 8 8 8 8 8 8 8 9 9 9 9 9 9
10 10 10 11 11 10 10 8 8 8 9 9 8 8 7 7 7 7 7 7 7 7 7 7 7 7 7 7 7 7 7 7 7 7 7 7 7 7 7 7 7 7 7 8 8 8 8 9 9
10 10 10 10 10 10 8 7 7 7 8 8 8 7 7 7 7 6 6 6 6 6 6 6 6 6 6 6 6 7 7 6 6 6 6 6 6 6 6 6 7 7 7 7 7 7 7 8 8
10 9 9 9 9 9 8 7 6 8 8 7 7 7 6 6 6 6 6 6 6 6 6 6 6 6 6 6 6 6 6 6 6 6 6 6 6 6 6 6 6 6 6 6 6 6 6 7 7
9 9 9 9 8 8 8 8 7 8 7 6 6 6 6 6 6 6 6 6 5 5 5 5 5 5 5 5 5 5 5 5 5 5 5 5 5 5 5 5 5 5 5 5 5 5 6 6 6
9 8 9 9 8 8 7 7 7 7 6 5 5 5 5 5 5 5 5 5 5 5 5 5 5 4 4 4 4 4 4 4 4 4 4 4 4 4 4 4 4 4 4 4 4 4 4 5 5
9 8 9 8 8 7 6 6 6 6 6 5 5 5 5 5 5 5 5 4 4 4 4 4 4 4 4 4 4 4 4 4 4 4 4 4 4 4 4 3 3 3 3 3 3 3 4 3 4
9 9 9 8 8 7 6 6 6 6 5 4 4 4 4 4 5 4 4 4 4 4 3 3 3 3 3 3 3 3 3 3 3 3 3 3 3 3 3 3 3 3 3 2 2 2 3 3 3
9 9 8 7 7 7 6 5 5 5 5 4 4 4 4 4 4 4 4 3 3 3 3 3 3 3 3 3 3 3 3 2 2 2 2 2 2 2 2 2 2 2 2 2 2 2 2 2 1
8 8 8 7 6 6 6 5 5 5 4 4 4 4 4 4 4 3 3 3 3 3 2 2 2 2 2 2 2 2 2 2 2 2 2 2 1 1 1 1 1 1 1 1 1 1 1 1 1
8 8 7 7 6 5 5 5 5 5 4 3 3 4 4 4 3 3 3 3 2 2 2 2 2 1 1 1 1 1 1 1 1 1 1 1 1 1 1 1 1 1 0 0 0 0 -0 -0 0
7 7 7 6 5 5 4 4 4 4 4 4 3 3 3 3 3 3 2 2 2 2 2 1 1 1 1 1 1 0 0 0 0 0 0 0 0 -0 -0 -0 -0 -0 -0 -0 -0 -0 -1 -1 -1
6 6 5 4 4 5 5 4 4 3 4 4 3 3 3 3 3 3 2 2 2 1 1 1 1 1 0 0 0 -0 -0 -0 -1 -1 -1 -1 -1 -1 -1 -1 -1 -1 -1 -1 -1 -1 -1 -1 -1
6 6 6 6 5 5 4 4 4 4 3 3 3 3 3 3 3 2 2 1 1 1 1 1 0 0 -0 -0 -0 -1 -1 -1 -1 -1 -1 -1 -1 -1 -1 -2 -2 -2 -2 -2 -2 -2 -2 -2 -2
5 5 6 6 5 4 4 3 3 2 2 3 3 2 2 2 2 2 1 1 1 0 0 -0 -0 -0 -1 -1 -1 -1 -1 -2 -2 -2 -2 -2 -2 -2 -2 -2 -2 -2 -2 -2 -2 -2 -2 -2 -2
5 4 5 4 3 3 3 2 2 2 2 1 1 1 1 1 1 1 1 1 0 0 -0 -0 -1 -1 -1 -1 -2 -2 -2 -2 -2 -2 -2 -2 -3 -3 -3 -3 -3 -3 -3 -3 -3 -3 -3 -3 -3
4 4 3 3 4 4 4 2 3 2 1 0 -0 -0 0 1 0 0 0 -0 -0 -0 -1 -1 -1 -1 -2 -2 -2 -2 -2 -3 -3 -3 -3 -3 -3 -3 -3 -3 -3 -3 -3 -3 -3 -3 -3 -3 -3
3 3 3 3 3 4 3 4 3 2 1 0 -0 0 -0 -0 -0 -0 -1 -1 -1 -1 -1 -1 -2 -2 -2 -2 -2 -3 -3 -3 -3 -3 -3 -4 -4 -4 -4 -4 -4 -4 -4 -4 -4 -4 -4 -4 -4
3 3 2 3 3 2 2 3 2 1 0 0 -0 -0 -0 -1 -1 -1 -1 -1 -2 -2 -2 -2 -2 -2 -3 -3 -3 -3 -3 -4 -4 -4 -4 -4 -4 -4 -4 -4 -5 -5 -5 -5 -5 -5 -5 -5 -5
Wind_Speed
10 7 3 4 6 5 1 2 1 1 2 2 3 6 7 5 3 4 2 2 2 2 3 4 7 9 10 11 11 12 13 13 13 13 13 14 14 14 14 14 15 15 15 15 15 15 15 15 14
5 3 5 5 5 2 3 2 2 1 4 4 5 6 6 5 3 5 2 1 3 4 5 5 7 8 10 11 12 12 13 13 13 13 13 14 14 14 14 14 14 15 15 15 15 15 15 14 14
3 2 5 5 4 5 5 3 3 2 3 3 4 5 4 3 3 2 1 2 5 5 6 5 8 9 10 10 12 12 13 13 13 13 13 13 13 14 14 14 13 14 14 14 14 14 14 14 13
3 5 5 4 2 3 4 4 4 4 3 5 5 5 3 3 1 2 3 5 6 6 7 6 9 9 10 11 12 12 13 13 13 13 13 13 13 13 13 13 13 13 13 13 13 13 14 13 13
4 5 4 1 2 2 2 3 4 4 3 3 4 5 2 3 4 5 5 5 6 6 8 8 10 10 11 12 12 13 13 13 13 13 13 13 13 13 13 13 13 13 12 12 12 13 13 13 12
4 5 4 3 3 2 1 2 4 4 3 3 4 4 2 2 4 4 5 6 7 7 8 9 10 11 11 11 12 12 13 13 13 13 13 13 13 13 13 13 13 12 12 12 12 12 12 12 12
5 5 4 5 4 3 2 2 4 5 4 2 4 5 3 1 2 4 6 7 8 8 9 9 10 10 10 11 11 12 13 13 13 13 13 13 13 13 13 13 13 12 12 12 12 12 12 12 12
5 5 2 3 5 4 2 3 2 4 4 2 4 6 5 4 4 6 6 7 7 8 8 9 9 10 10 10 10 11 12 13 13 13 13 13 12 12 12 13 13 13 12 12 12 12 12 12 13
4 4 3 4 6 4 3 3 2 3 5 3 2 2 4 9 8 8 6 6 6 6 6 7 8 8 8 9 9 10 11 12 12 12 12 12 11 11 11 12 12 12 12 12 11 12 12 12 12
4 4 5 3 4 5 4 4 4 4 3 2 3 3 7 9 9 8 6 5 4 4 4 6 7 7 7 7 8 8 9 10 11 11 11 11 10 10 10 11 12 12 12 12 12 12 11 10 10
3 5 3 1 1 3 4 3 2 6 3 6 7 9 9 9 8 7 6 5 4 3 3 4 5 7 7 6 6 7 8 9 10 11 11 10 10 10 10 10 10 11 11 11 12 12 11 10 9
3 1 2 2 1 2 3 3 2 3 5 5 10 12 10 10 8 8 7 5 4 4 3 3 5 6 6 6 6 7 7 7 8 9 10 9 9 8 9 9 9 9 9 10 10 10 10 10 9
2 2 1 2 3 3 3 2 3 2 3 7 10 10 10 9 7 6 6 5 5 4 3 2 5 5 5 5 5 6 7 6 7 8 9 9 8 7 7 7 8 8 8 8 8 8 9 8 8
3 2 1 1 1 1 3 2 2 4 5 8 9 9 8 8 8 6 6 5 4 4 3 2 3 4 5 5 5 6 7 7 7 8 8 8 8 7 7 6 7 8 8 8 7 7 7 6 6
3 3 1 2 2 2 4 2 5 7 7 8 8 8 7 7 7 7 7 6 5 4 3 2 3 5 5 5 4 5 6 7 7 6 8 8 8 7 6 6 6 7 8 8 7 7 6 5 5
2 2 2 4 4 3 4 7 6 7 9 8 7 7 7 6 6 7 7 6 5 4 3 3 3 4 4 4 4 5 6 6 6 6 7 8 8 7 6 5 6 8 7 7 5 4 3 4 4
0 2 4 4 4 4 5 7 5 7 10 9 8 7 7 6 6 6 7 7 6 5 4 3 3 3 3 4 4 5 6 6 6 6 6 7 7 7 6 5 6 7 6 6 5 4 3 4 4
5 5 5 6 4 4 6 9 7 7 9 10 8 8 7 8 8 7 7 7 6 5 4 4 3 3 3 3 4 4 5 5 5 5 6 6 6 7 6 5 6 6 5 4 4 3 4 3 4
5 5 6 6 3 4 8 10 9 7 8 9 9 8 8 8 6 6 7 7 6 5 5 4 3 2 2 2 1 1 1 2 3 5 6 6 6 6 6 5 5 5 3 3 3 2 3 3 4
5 5 6 4 2 4 6 9 8 6 8 10 11 10 10 8 6 6 7 6 6 6 5 4 3 2 2 1 1 1 1 1 2 4 6 6 6 6 5 5 4 4 2 3 4 3 2 2 3
6 7 6 4 2 2 3 6 4 3 3 5 7 7 8 10 10 9 8 7 6 6 5 5 4 3 2 2 2 2 2 2 2 3 4 6 6 6 6 5 5 4 2 2 3 2 2 2 2
7 4 4 3 2 4 2 5 6 4 2 5 7 7 8 7 8 8 8 7 7 6 5 4 4 3 2 3 3 2 2 0 1 1 2 5 6 6 6 5 5 4 4 2 3 3 2 2 2
4 1 2 3 3 3 3 4 7 2 5 7 8 8 7 8 8 8 8 8 6 5 5 4 4 3 3 3 3 3 1 0 0 1 2 3 5 6 6 6 5 5 4 3 3 3 2 2 2
2 3 3 3 3 4 6 6 7 5 7 5 6 7 7 7 7 7 7 6 5 4 4 4 4 3 3 3 2 2 1 0 1 1 2 3 3 4 5 6 5 5 4 4 4 2 2 2 2
3 3 2 3 2 6 3 5 8 5 4 5 6 7 6 6 7 7 7 6 6 6 5 4 4 3 3 3 2 2 2 1 1 1 1 2 2 2 3 5 5 5 5 5 4 3 3 2 3
4 5 5 5 5 5 2 7 6 3 2 0 3 5 6 6 6 6 7 7 7 7 6 5 5 4 3 3 2 1 1 1 1 2 2 2 2 3 4 4 5 5 5 6 5 3 3 3 3
4 4 3 3 2 4 6 6 6 1 2 2 4 5 5 5 5 6 6 6 6 6 6 6 5 4 3 3 2 1 1 1 2 2 1 1 2 3 4 5 5 5 5 5 4 3 3 3 3
2 4 4 3 3 5 5 5 5 5 5 3 4 5 5 4 4 4 4 4 4 4 4 4 4 4 3 2 2 1 1 2 2 1 2 2 3 4 4 4 4 4 5 5 4 3 4 4 4
4 3 4 3 4 4 5 6 4 6 6 6 6 5 5 5 4 3 3 3 3 3 3 3 3 2 2 2 2 1 2 2 2 2 2 2 2 3 4 4 4 4 4 4 3 4 4 4 4
5 6 7 5 6 5 4 7 1 1 2 4 4 4 4 4 3 3 3 3 3 3 3 3 3 3 2 2 1 2 2 1 2 2 2 2 3 3 4 4 4 4 4 4 4 5 5 5 5
Wind_Direction
329 339 66 57 59 58 200 261 184 96 61 47 65 90 100 94 113 144 144 98 66 35 31 42 54 63 65 65 66 67 66 64 62 60 60 59 57 55 54 54 53 52 51 50 49 49 51 52 53
334 15 56 61 94 123 254 249 189 182 153 132 67 71 77 71 61 97 104 53 66 63 50 55 68 72 72 69 68 67 66 64 63 62 61 60 59 57 56 54 53 52 51 49 47 47 48 48 50
332 66 81 80 121 176 201 215 180 115 101 103 75 53 78 96 92 113 117 91 72 60 53 60 80 78 75 74 71 68 66 64 63 62 61 61 60 58 56 55 53 52 51 48 46 45 44 44 46
60 54 60 82 168 213 195 193 165 133 74 61 98 79 65 38 91 125 108 91 78 61 56 63 81 78 74 73 71 69 66 65 63 61 61 61 60 59 56 54 52 52 50 48 46 44 41 41 43
61 81 77 77 207 230 205 193 160 127 111 74 100 105 88 20 74 98 96 89 85 65 58 63 71 75 72 71 70 68 66 64 64 62 59 57 57 56 54 51 49 49 48 45 43 41 39 41 43
60 74 108 186 204 215 232 182 135 111 108 94 100 110 135 93 89 96 92 87 81 71 61 59 65 66 68 70 69 67 65 63 63 61 58 55 54 53 51 48 45 45 44 44 41 40 38 38 40
109 110 158 178 180 210 220 141 129 134 120 130 133 122 142 147 115 110 97 89 78 72 63 55 54 59 60 64 68 68 66 63 62 60 57 55 52 51 49 44 42 41 41 40 39 38 38 36 37
126 116 145 180 181 211 182 119 100 124 133 82 112 143 174 190 140 104 90 81 75 67 62 56 53 54 54 58 66 69 67 64 62 59 56 53 49 48 46 42 41 38 37 38 36 36 34 34 34
99 92 183 200 187 198 157 126 85 83 102 67 46 129 151 139 127 108 89 72 68 64 54 55 53 52 54 59 61 63 65 64 60 56 54 50 45 43 41 39 41 37 33 34 33 32 30 30 29
95 155 204 209 186 173 156 146 154 116 101 101 75 76 117 130 132 125 119 111 92 74 58 50 54 50 53 59 58 59 62 62 58 56 53 50 46 42 40 37 39 35 30 27 26 26 27 26 22
131 174 183 219 180 150 142 144 144 139 182 190 173 157 144 138 139 139 137 132 122 103 75 50 54 54 57 58 62 61 61 61 58 55 53 53 48 42 38 34 33 31 26 22 16 20 21 20 17
133 186 169 187 147 135 152 145 129 168 212 174 161 153 148 151 156 156 151 141 126 105 82 55 61 61 57 64 67 64 61 60 58 53 51 53 48 38 33 32 26 26 23 18 14 13 13 13 12
172 178 156 136 96 113 107 131 148 206 182 131 135 143 153 158 160 156 145 138 126 116 94 67 66 67 64 63 65 64 60 60 63 59 53 53 49 36 29 26 24 19 17 15 8 8 6 7 7
163 147 164 182 156 163 142 194 153 220 155 139 144 157 163 164 162 152 145 143 136 132 125 89 75 72 72 65 62 64 63 59 58 57 52 51 51 43 30 21 17 13 11 9 6 2 3 359 1
106 99 320 230 184 170 120 272 215 197 152 150 159 162 163 167 162 164 162 155 150 143 134 111 96 77 71 67 63 70 67 64 57 55 53 51 50 45 36 22 13 5 7 9 7 6 7 360 356
96 103 247 239 179 171 157 246 220 175 161 170 175 172 170 174 171 166 160 151 145 136 130 120 101 84 73 68 63 69 66 62 54 51 53 47 45 42 38 27 11 4 9 10 2 1 352 346 339
105 227 235 248 198 169 188 240 226 178 171 184 188 184 179 177 173 170 162 156 151 148 141 129 102 95 79 73 69 67 63 55 49 49 50 43 40 37 36 27 11 8 9 7 0 355 347 340 337
217 224 235 231 212 182 216 244 244 204 190 195 195 192 188 188 191 177 164 157 151 147 140 132 111 92 77 71 60 55 52 43 40 46 41 40 34 32 31 26 14 14 10 3 358 345 349 336 330
199 212 240 244 202 200 231 250 252 225 204 202 201 197 194 198 188 168 162 156 145 140 140 139 124 108 96 78 66 67 40 22 22 31 30 32 29 25 25 16 11 12 12 350 352 343 345 347 346
225 240 251 274 243 221 252 263 257 228 212 203 200 200 195 187 171 168 164 159 156 156 156 150 146 131 118 111 90 80 60 27 29 21 20 20 23 19 15 14 5 4 5 359 355 351 344 346 2
235 226 231 239 307 286 293 292 262 245 208 208 201 195 189 185 181 175 170 167 161 162 169 167 160 143 130 104 76 59 47 25 20 12 6 4 8 11 10 8 7 0 4 347 340 342 350 333 340
245 228 217 212 212 262 201 272 267 236 234 221 209 195 191 185 177 173 172 172 175 177 170 163 157 147 137 113 111 109 99 57 315 332 341 353 2 5 4 1 1 357 357 345 333 353 328 321 320
220 198 208 211 195 262 233 223 276 235 237 234 218 203 191 183 178 178 179 180 177 170 166 161 154 151 145 127 134 134 127 172 332 357 356 352 351 355 357 357 358 355 351 341 334 334 323 310 293
147 63 50 56 99 252 218 198 266 221 220 223 211 201 189 180 176 176 175 167 164 158 154 149 154 162 152 137 138 142 150 135 23 357 346 340 334 345 350 352 353 346 339 330 322 318 312 302 295
96 100 11 325 269 247 191 206 247 241 235 208 201 194 177 169 169 170 169 169 168 164 163 158 160 170 158 150 153 166 185 184 204 256 285 313 323 326 333 340 339 334 330 326 326 326 310 297 291
192 165 180 225 241 273 263 231 247 271 311 173 161 155 153 162 170 174 175 172 171 168 166 165 169 175 171 169 180 194 195 196 228 251 259 272 290 302 316 329 328 324 324 326 323 317 307 309 294
166 203 187 165 253 265 256 275 293 292 360 94 131 145 163 170 171 169 168 170 170 171 173 171 172 179 183 184 188 200 223 243 251 267 271 287 305 314 323 323 322 321 321 319 316 309 304 300 292
166 148 118 161 218 255 270 259 248 232 225 193 179 179 177 163 157 161 162 164 165 167 168 167 172 182 187 185 198 211 237 254 262 267 278 289 306 312 319 319 318 316 316 315 314 306 303 302 296
162 178 182 185 202 208 261 262 230 211 205 196 200 190 178 171 166 159 157 159 158 156 159 168 172 173 191 204 210 217 238 257 265 268 271 281 301 308 304 308 304 303 302 304 300 294 298 297 298
196 195 169 189 228 213 235 268 318 225 205 182 182 183 172 164 157 155 155 145 148 159 170 179 183 187 208 214 221 235 246 262 266 271 275 288 289 295 295 301 298 296 298 296 288 288 294 289 289
Height
1515 1515 1517 1518 1522 1535 1537 1532 1528 1527 1528 1529 1528 1528 1530 1534 1538 1545 1543 1541 1543 1544 1544 1545 1545 1545 1545 1544 1544 1543 1543 1542 1542 1541 1541 1540 1540 1540 1539 1539 1539 1538 1538 1538 1538 1537 1537 1537 1537
1514 1516 1518 1518 1529 1542 1538 1531 1528 1526 1527 1528 1528 1529 1531 1535 1537 1538 1539 1541 1542 1543 1544 1544 1544 1544 1544 1544 1543 1543 1542 1542 1542 1541 1541 1540 1540 1539 1539 1539 1539 1539 1538 1538 1538 1538 1537 1537 1537
1515 1516 1518 1522 1533 1538 1533 1528 1526 1526 1527 1527 1529 1531 1533 1536 1537 1538 1539 1540 1542 1543 1543 1543 1544 1544 1544 1543 1543 1543 1542 1542 1541 1541 1541 1540 1540 1539 1539 1539 1539 1538 1538 1538 1538 1538 1537 1537 1537
1515 1517 1519 1527 1532 1530 1527 1526 1524 1525 1527 1527 1529 1533 1535 1538 1538 1538 1539 1540 1541 1542 1542 1542 1543 1543 1543 1543 1543 1542 1542 1542 1541 1541 1540 1540 1540 1539 1539 1539 1538 1538 1538 1538 1537 1537 1537 1537 1537
1514 1516 1524 1532 1530 1527 1525 1524 1524 1525 1526 1528 1529 1533 1536 1537 1537 1538 1539 1540 1541 1541 1542 1542 1542 1542 1542 1542 1542 1542 1542 1541 1541 1541 1540 1540 1539 1539 1539 1538 1538 1538 1538 1537 1537 1537 1537 1537 1537
1514 1516 1530 1535 1529 1526 1524 1524 1524 1525 1527 1529 1530 1533 1536 1537 1537 1538 1539 1540 1540 1541 1541 1541 1541 1542 1542 1542 1541 1541 1541 1541 1540 1540 1540 1539 1539 1539 1539 1538 1538 1537 1537 1537 1536 1536 1536 1536 1536
1515 1521 1528 1528 1528 1526 1524 1524 1524 1525 1527 1529 1529 1532 1534 1536 1536 1537 1538 1539 1540 1540 1540 1540 1541 1541 1541 1541 1541 1541 1541 1540 1540 1539 1539 1539 1539 1538 1538 1537 1537 1537 1536 1536 1536 1536 1536 1535 1536
1514 1519 1524 1527 1526 1525 1523 1523 1524 1525 1527 1529 1529 1530 1532 1534 1535 1536 1537 1538 1539 1539 1539 1540 1540 1540 1540 1540 1540 1540 1540 1540 1539 1539 1539 1538 1538 1537 1537 1537 1536 1535 1535 1535 1535 1535 1535 1535 1535
1514 1523 1527 1524 1523 1522 1521 1522 1524 1525 1526 1527 1528 1529 1530 1532 1533 1535 1536 1537 1537 1538 1538 1539 1539 1539 1539 1539 1539 1539 1539 1539 1538 1538 1538 1537 1537 1536 1536 1535 1535 1535 1534 1534 1534 1533 1533 1533 1534
1514 1524 1521 1518 1518 1518 1519 1521 1523 1524 1525 1527 1527 1528 1529 1531 1532 1533 1534 1534 1535 1536 1537 1537 1538 1538 1538 1538 1538 1538 1538 1538 1537 1537 1537 1536 1536 1535 1535 1534 1534 1534 1533 1533 1532 1532 1532 1532 1532
1514 1518 1517 1517 1516 1517 1518 1520 1521 1522 1525 1524 1524 1525 1527 1529 1530 1531 1532 1533 1534 1535 1536 1536 1537 1537 1537 1537 1537 1537 1537 1537 1536 1536 1535 1535 1534 1534 1533 1533 1532 1532 1532 1531 1531 1531 1531 1530 1530
1514 1515 1515 1515 1516 1516 1517 1519 1521 1521 1521 1521 1523 1524 1525 1527 1528 1529 1531 1532 1533 1534 1535 1535 1536 1536 1536 1536 1536 1536 1535 1535 1535 1534 1534 1533 1533 1532 1532 1531 1531 1530 1530 1530 1529 1529 1529 1529 1529
1514 1515 1515 1515 1515 1516 1517 1518 1519 1520 1519 1521 1522 1523 1524 1526 1527 1529 1530 1531 1532 1532 1533 1534 1534 1534 1535 1535 1534 1534 1534 1534 1533 1533 1532 1532 1531 1531 1530 1530 1529 1529 1528 1527 1527 1527 1526 1526 1526
1513 1514 1515 1515 1515 1516 1517 1519 1519 1517 1518 1519 1520 1522 1523 1524 1526 1527 1528 1528 1530 1531 1531 1532 1532 1533 1533 1533 1533 1532 1532 1532 1531 1531 1530 1530 1530 1529 1529 1528 1527 1526 1526 1525 1525 1524 1524 1523 1523
1513 1515 1516 1515 1514 1515 1517 1519 1517 1514 1516 1518 1519 1520 1521 1523 1524 1524 1525 1526 1527 1529 1530 1530 1531 1531 1531 1531 1531 1531 1531 1530 1529 1529 1529 1528 1528 1527 1527 1526 1525 1524 1524 1523 1523 1522 1521 1521 1520
1514 1517 1518 1514 1514 1514 1519 1517 1513 1513 1514 1515 1517 1518 1519 1520 1521 1522 1523 1524 1526 1527 1528 1528 1529 1529 1529 1529 1530 1529 1529 1528 1528 1527 1527 1527 1526 1526 1525 1524 1523 1522 1521 1521 1520 1519 1518 1517 1517
1517 1519 1516 1514 1512 1513 1516 1514 1510 1511 1512 1513 1514 1515 1516 1517 1518 1519 1521 1522 1523 1524 1525 1526 1527 1527 1528 1528 1528 1528 1527 1526 1526 1525 1525 1525 1524 1524 1523 1522 1521 1520 1520 1518 1518 1517 1516 1514 1513
1516 1516 1513 1513 1511 1513 1515 1512 1508 1509 1509 1509 1510 1511 1512 1513 1515 1516 1518 1519 1521 1522 1523 1524 1525 1525 1526 1526 1526 1526 1525 1525 1524 1524 1523 1523 1522 1521 1521 1520 1519 1518 1518 1517 1516 1515 1514 1512 1511
1508 1511 1511 1509 1509 1512 1511 1509 1506 1505 1506 1507 1507 1507 1509 1510 1512 1514 1515 1517 1518 1519 1520 1521 1522 1523 1523 1523 1523 1523 1523 1523 1522 1522 1521 1521 1520 1519 1519 1518 1517 1516 1515 1514 1513 1512 1511 1510 1508
1508 1509 1509 1509 1509 1510 1510 1507 1503 1502 1501 1501 1502 1503 1504 1507 1509 1511 1512 1514 1515 1516 1517 1518 1519 1520 1520 1520 1521 1521 1521 1520 1520 1520 1519 1519 1518 1517 1516 1515 1514 1514 1513 1512 1511 1510 1509 1508 1507
1506 1507 1507 1509 1510 1510 1511 1506 1502 1498 1498 1499 1499 1500 1501 1502 1504 1507 1509 1510 1512 1513 1514 1516 1517 1517 1518 1518 1518 1518 1518 1518 1518 1517 1517 1516 1515 1515 1514 1513 1512 1511 1510 1509 1508 1508 1506 1505 1505
1505 1504 1505 1507 1512 1515 1513 1512 1500 1497 1497 1496 1496 1497 1498 1500 1502 1504 1506 1507 1509 1511 1512 1513 1514 1515 1515 1515 1515 1515 1515 1515 1514 1514 1514 1513 1513 1512 1511 1510 1509 1508 1507 1506 1506 1505 1504 1503 1502
1502 1503 1505 1506 1510 1514 1513 1514 1502 1497 1496 1493 1492 1493 1494 1497 1499 1501 1503 1505 1506 1508 1510 1511 1512 1513 1513 1512 1513 1513 1513 1513 1512 1512 1511 1511 1510 1509 1508 1507 1506 1505 1504 1503 1503 1502 1501 1500 1499
1502 1504 1507 1510 1513 1512 1507 1512 1501 1497 1490 1488 1488 1489 1491 1493 1496 1498 1500 1502 1504 1506 1507 1508 1509 1510 1510 1509 1510 1510 1510 1510 1509 1509 1508 1507 1507 1506 1505 1504 1503 1502 1501 1500 1499 1498 1498 1497 1496
1503 1507 1511 1510 1513 1506 1504 1506 1498 1488 1485 1484 1485 1486 1488 1491 1493 1495 1497 1499 1501 1502 1504 1505 1506 1507 1507 1507 1507 1507 1507 1507 1506 1506 1505 1504 1503 1502 1501 1500 1499 1498 1497 1496 1495 1494 1494 1493 1492
1503 1504 1508 1508 1508 1506 1505 1503 1491 1486 1483 1482 1483 1485 1487 1489 1491 1493 1495 1496 1498 1499 1501 1502 1503 1503 1504 1504 1504 1504 1505 1504 1503 1503 1502 1501 1500 1499 1498 1497 1496 1495 1494 1493 1492 1490 1490 1489 1488
1502 1505 1503 1509 1511 1511 1505 1500 1490 1484 1483 1483 1483 1485 1486 1488 1490 1491 1493 1495 1496 1497 1498 1499 1500 1500 1501 1501 1501 1501 1501 1500 1500 1499 1499 1498 1497 1496 1495 1494 1492 1491 1490 1489 1488 1486 1485 1485 1484
1500 1502 1508 1509 1507 1504 1499 1499 1490 1484 1483 1484 1484 1484 1485 1487 1488 1490 1491 1493 1494 1495 1496 1497 1497 1498 1498 1498 1498 1498 1497 1497 1496 1496 1495 1494 1493 1492 1491 1490 1489 1487 1486 1485 1484 1482 1481 1480 1480
1502 1503 1502 1506 1506 1504 1501 1491 1481 1479 1479 1481 1482 1482 1484 1485 1487 1488 1490 1491 1492 1493 1494 1494 1494 1494 1494 1494 1494 1494 1493 1493 1492 1491 1491 1490 1489 1488 1487 1485 1484 1483 1482 1480 1479 1478 1477 1476 1475
1496 1496 1500 1502 1502 1504 1502 1490 1478 1478 1477 1479 1480 1482 1484 1485 1486 1487 1488 1489 1490 1490 1491 1491 1491 1491 1491 1491 1491 1490 1490 1489 1488 1487 1487 1486 1485 1484 1482 1481 1480 1478 1477 1476 1475 1474 1473 1471 1470